• In Hungary
  • List of Countries
  • For 7 days
  • Water Temperature
  • Satellite Maps
  • Weather Map
  • News
  • Weather Widgets
  • user-avatar
    Login

    Hourly Weather Sobkow

    Today, 22 November, Wednesday

    Time Temperature Precipitation Wind Pressure Humidity
    00:00 +2°C° 0 mm 1 mps 740 mmHg 90%
    01:00 +2°C° 0 mm 1 mps 740 mmHg 90%
    02:00 +2°C° 0 mm 1 mps 740 mmHg 91%
    03:00 +2°C° 0 mm 1 mps 740 mmHg 92%
    04:00 +2°C° 0 mm 1 mps 740 mmHg 92%
    05:00 +1°C° 0.1 mm 2 mps 740 mmHg 92%
    06:00 +1°C° 0.1 mm 2 mps 740 mmHg 92%
    07:00 +2°C° 0.1 mm 2 mps 740 mmHg 92%
    08:00 +2°C° 0.2 mm 2 mps 740 mmHg 91%
    09:00 +3°C° 0.2 mm 2 mps 740 mmHg 90%
    10:00 +2°C° 0.2 mm 3 mps 740 mmHg 89%
    11:00 +3°C° 0.5 mm 3 mps 740 mmHg 90%
    12:00 +4°C° 0.5 mm 2 mps 740 mmHg 90%
    13:00 +4°C° 0.5 mm 2 mps 740 mmHg 91%
    14:00 +4°C° 0.4 mm 2 mps 740 mmHg 92%
    15:00 +4°C° 0.4 mm 2 mps 740 mmHg 93%
    16:00 +5°C° 0.4 mm 2 mps 740 mmHg 95%
    17:00 +4°C° 0 mm 2 mps 741 mmHg 94%
    18:00 +4°C° 0 mm 2 mps 741 mmHg 94%
    19:00 +4°C° 0 mm 2 mps 741 mmHg 94%
    20:00 +4°C° 0 mm 2 mps 741 mmHg 94%
    21:00 +4°C° 0 mm 2 mps 741 mmHg 93%
    22:00 +4°C° 0 mm 2 mps 742 mmHg 93%
    23:00 +4°C° 0 mm 2 mps 742 mmHg 92%

    Tomorrow, 23 November, Thursday

    Time Temperature Precipitation Wind Pressure Humidity
    00:00 +4°C° 0 mm 2 mps 742 mmHg 92%
    01:00 +4°C° 0 mm 2 mps 742 mmHg 91%
    02:00 +3°C° 0 mm 2 mps 742 mmHg 91%
    03:00 +3°C° 0 mm 2 mps 742 mmHg 91%
    04:00 +3°C° 0 mm 2 mps 742 mmHg 90%
    05:00 +3°C° 0 mm 2 mps 742 mmHg 90%
    06:00 +2°C° 0 mm 3 mps 742 mmHg 89%
    07:00 +2°C° 0 mm 3 mps 742 mmHg 89%
    08:00 +3°C° 0 mm 3 mps 742 mmHg 84%
    09:00 +5°C° 0 mm 3 mps 743 mmHg 80%
    10:00 +7°C° 0 mm 3 mps 743 mmHg 75%
    11:00 +8°C° 0 mm 3 mps 743 mmHg 73%
    12:00 +9°C° 0 mm 3 mps 743 mmHg 70%
    13:00 +10°C° 0 mm 3 mps 743 mmHg 68%
    14:00 +9°C° 0 mm 3 mps 743 mmHg 72%
    15:00 +8°C° 0 mm 3 mps 743 mmHg 76%
    16:00 +7°C° 0 mm 3 mps 743 mmHg 81%
    17:00 +5°C° 0 mm 3 mps 743 mmHg 81%
    18:00 +5°C° 0 mm 3 mps 743 mmHg 82%
    19:00 +5°C° 0 mm 3 mps 744 mmHg 83%
    20:00 +5°C° 0 mm 3 mps 744 mmHg 84%
    21:00 +5°C° 0 mm 3 mps 744 mmHg 85%
    22:00 +4°C° 0 mm 3 mps 744 mmHg 86%
    23:00 +4°C° 0 mm 3 mps 745 mmHg 87%

    Day after tomorrow, 24 November, Friday

    Time Temperature Precipitation Wind Pressure Humidity
    00:00 +4°C° 0 mm 3 mps 745 mmHg 87%
    01:00 +4°C° 0 mm 3 mps 745 mmHg 88%
    02:00 +4°C° 0 mm 3 mps 745 mmHg 89%
    03:00 +4°C° 0 mm 3 mps 745 mmHg 90%
    04:00 +3°C° 0 mm 3 mps 745 mmHg 91%
    05:00 +3°C° 0 mm 3 mps 745 mmHg 91%
    06:00 +4°C° 0 mm 2 mps 746 mmHg 91%
    07:00 +4°C° 0 mm 2 mps 746 mmHg 91%
    08:00 +5°C° 0 mm 2 mps 746 mmHg 87%
    09:00 +5°C° 0 mm 3 mps 746 mmHg 83%
    10:00 +8°C° 0 mm 3 mps 746 mmHg 79%
    11:00 +9°C° 0 mm 3 mps 746 mmHg 77%
    12:00 +9°C° 0 mm 3 mps 746 mmHg 74%
    13:00 +10°C° 0 mm 3 mps 745 mmHg 71%
    14:00 +9°C° 0 mm 3 mps 745 mmHg 75%
    15:00 +8°C° 0 mm 3 mps 745 mmHg 80%
    16:00 +8°C° 0 mm 2 mps 745 mmHg 84%
    17:00 +7°C° 0 mm 2 mps 745 mmHg 85%
    18:00 +7°C° 0 mm 3 mps 745 mmHg 86%
    19:00 +7°C° 0 mm 3 mps 745 mmHg 87%
    20:00 +5°C° 0 mm 3 mps 745 mmHg 87%
    21:00 +5°C° 0 mm 3 mps 745 mmHg 88%
    22:00 +5°C° 0 mm 3 mps 745 mmHg 88%
    23:00 +5°C° 0 mm 3 mps 745 mmHg 88%

    25 November, Saturday

    Time Temperature Precipitation Wind Pressure Humidity
    00:00 +6°C° 0 mm 2 mps 745 mmHg 87%
    01:00 +5°C° 0 mm 2 mps 745 mmHg 87%
    02:00 +5°C° 0 mm 2 mps 745 mmHg 87%
    03:00 +5°C° 0 mm 2 mps 744 mmHg 87%
    04:00 +5°C° 0 mm 2 mps 744 mmHg 87%
    05:00 +5°C° 0 mm 2 mps 743 mmHg 86%
    06:00 +5°C° 0 mm 2 mps 743 mmHg 86%
    07:00 +5°C° 0 mm 2 mps 743 mmHg 86%
    08:00 +5°C° 0 mm 3 mps 743 mmHg 83%
    09:00 +7°C° 0 mm 3 mps 742 mmHg 80%
    10:00 +7°C° 0 mm 4 mps 742 mmHg 76%
    11:00 +8°C° 0 mm 4 mps 741 mmHg 73%
    12:00 +10°C° 0 mm 4 mps 740 mmHg 69%
    13:00 +10°C° 0 mm 5 mps 740 mmHg 66%
    14:00 +9°C° 0 mm 5 mps 739 mmHg 69%
    15:00 +8°C° 0 mm 5 mps 739 mmHg 73%
    16:00 +8°C° 0 mm 5 mps 738 mmHg 76%
    17:00 +8°C° 0 mm 5 mps 738 mmHg 77%
    18:00 +8°C° 0 mm 5 mps 738 mmHg 77%
    19:00 +8°C° 0 mm 5 mps 737 mmHg 77%
    20:00 +8°C° 0.3 mm 5 mps 737 mmHg 79%
    21:00 +8°C° 0.3 mm 5 mps 737 mmHg 81%
    22:00 +8°C° 0.3 mm 5 mps 737 mmHg 83%
    23:00 +8°C° 0.4 mm 5 mps 738 mmHg 81%

    26 November, Sunday

    Time Temperature Precipitation Wind Pressure Humidity
    00:00 +8°C° 0.4 mm 6 mps 738 mmHg 79%
    01:00 +8°C° 0.4 mm 6 mps 738 mmHg 78%
    02:00 +7°C° 0 mm 6 mps 739 mmHg 75%
    03:00 +5°C° 0 mm 7 mps 740 mmHg 73%
    04:00 +5°C° 0 mm 7 mps 740 mmHg 70%
    05:00 +4°C° 0 mm 7 mps 741 mmHg 72%
    06:00 +3°C° 0 mm 6 mps 742 mmHg 73%
    07:00 +3°C° 0 mm 5 mps 743 mmHg 74%
    08:00 +3°C° 0 mm 5 mps 743 mmHg 72%
    09:00 +3°C° 0 mm 5 mps 744 mmHg 70%
    10:00 +3°C° 0 mm 6 mps 745 mmHg 67%
    11:00 +3°C° 0 mm 5 mps 745 mmHg 64%
    12:00 +3°C° 0 mm 5 mps 745 mmHg 60%
    13:00 +3°C° 0 mm 5 mps 745 mmHg 57%
    14:00 +4°C° 0 mm 4 mps 745 mmHg 59%
    15:00 +3°C° 0 mm 3 mps 745 mmHg 61%
    16:00 +3°C° 0 mm 3 mps 745 mmHg 62%
    17:00 +2°C° 0 mm 3 mps 746 mmHg 64%
    18:00 +2°C° 0 mm 3 mps 746 mmHg 65%
    19:00 +2°C° 0 mm 3 mps 746 mmHg 66%
    20:00 +1°C° 0 mm 3 mps 746 mmHg 68%
    21:00 +1°C° 0 mm 3 mps 746 mmHg 70%
    22:00 0°C° 0 mm 3 mps 746 mmHg 72%
    23:00 0°C° 0 mm 3 mps 746 mmHg 74%

    27 November, Monday

    Time Temperature Precipitation Wind Pressure Humidity
    00:00 0°C° 0 mm 3 mps 746 mmHg 76%
    01:00 -1°C° 0 mm 3 mps 746 mmHg 78%
    02:00 -1°C° 0 mm 3 mps 746 mmHg 78%
    03:00 -1°C° 0 mm 3 mps 746 mmHg 78%
    04:00 -1°C° 0 mm 3 mps 746 mmHg 78%
    05:00 -1°C° 0 mm 3 mps 746 mmHg 78%
    06:00 -2°C° 0 mm 4 mps 746 mmHg 78%
    07:00 -2°C° 0 mm 4 mps 746 mmHg 79%
    08:00 -1°C° 0 mm 4 mps 746 mmHg 75%
    09:00 0°C° 0 mm 5 mps 746 mmHg 72%
    10:00 +1°C° 0 mm 5 mps 746 mmHg 68%
    11:00 +2°C° 0 mm 5 mps 746 mmHg 66%
    12:00 +2°C° 0 mm 5 mps 745 mmHg 65%
    13:00 +3°C° 0 mm 5 mps 745 mmHg 63%
    14:00 +2°C° 0 mm 5 mps 745 mmHg 67%
    15:00 +1°C° 0 mm 4 mps 745 mmHg 71%
    16:00 +1°C° 0 mm 3 mps 745 mmHg 74%
    17:00 +1°C° 0 mm 3 mps 746 mmHg 75%
    18:00 +1°C° 0 mm 3 mps 746 mmHg 76%
    19:00 0°C° 0 mm 3 mps 746 mmHg 77%
    20:00 0°C° 0 mm 3 mps 746 mmHg 78%
    21:00 0°C° 0 mm 3 mps 746 mmHg 79%
    22:00 0°C° 0 mm 3 mps 746 mmHg 80%
    23:00 0°C° 0 mm 3 mps 746 mmHg 82%
    Show more